Theta_e
303 304 305 307 307 307 306 306 306 305 305 305 303 302 301 299 297 295 294 293 293 293 293 293 293 293 293 292 290 289 289 288 288 287 287 288 288 288 288 289 289 289 289
306 305 304 304 305 304 305 305 305 305 305 304 303 302 300 299 297 296 295 294 293 293 293 293 293 292 292 291 290 289 288 287 286 287 287 286 287 286 287 286 286 287 287
303 305 305 305 303 303 304 304 303 304 304 304 303 302 302 300 298 296 295 295 294 293 293 292 292 292 292 291 289 288 287 286 286 286 285 285 285 285 285 285 285 285 285
298 300 302 305 307 304 301 301 301 302 302 302 303 302 300 300 299 297 296 294 294 293 292 292 291 291 291 290 288 287 286 286 286 285 285 285 284 284 284 284 285 285 285
297 298 299 302 304 305 303 302 301 300 302 301 299 301 300 299 299 298 296 295 294 293 291 291 290 290 290 289 288 287 286 286 286 285 284 284 284 284 284 283 283 284 284
297 296 297 298 300 301 302 301 301 299 299 299 300 299 298 299 298 298 296 295 294 292 291 290 289 289 290 289 287 286 286 286 286 285 285 285 285 284 283 283 282 283 282
293 294 295 297 298 298 299 298 300 298 298 298 298 298 298 297 296 296 295 294 293 292 291 290 289 289 288 287 286 285 285 285 286 286 286 285 284 283 283 283 282 280 280
289 291 292 294 297 299 297 297 295 295 295 297 297 296 297 296 295 295 294 293 292 291 291 290 289 289 288 287 286 285 285 286 286 285 285 284 283 282 282 281 280 279 280
287 288 289 290 292 297 298 296 294 293 291 293 294 294 295 294 294 294 292 292 291 291 290 288 288 287 287 286 285 284 284 285 285 284 284 283 282 281 280 280 280 279 279
285 286 287 288 290 293 297 298 294 292 290 289 290 291 291 293 292 291 291 291 290 289 288 287 287 287 286 285 285 284 284 285 284 284 283 282 281 280 280 279 279 279 277
284 284 285 287 288 291 293 296 296 293 290 289 288 289 288 289 289 289 288 290 289 288 287 286 285 285 284 284 283 284 284 283 283 284 282 282 280 280 279 278 278 277 276
284 283 284 285 285 287 290 292 296 294 291 289 289 286 286 286 288 285 285 287 288 288 287 287 286 285 283 282 281 282 282 283 283 282 281 280 280 279 278 278 277 276 275
283 284 283 283 283 285 286 290 291 295 291 291 287 286 286 285 285 285 284 284 284 286 285 285 285 283 282 280 280 279 279 281 281 281 280 279 279 278 277 277 276 276 276
280 282 283 282 283 282 284 285 289 289 292 290 292 288 285 285 286 284 283 284 282 283 283 283 282 281 280 280 279 279 280 279 280 279 278 277 277 277 276 275 276 275 276
276 278 279 279 280 280 281 283 285 288 288 291 291 293 291 290 288 285 284 284 282 283 283 282 280 278 279 279 278 278 278 278 278 277 277 276 276 276 275 274 274 274 275
275 277 276 275 277 278 278 280 283 284 286 286 286 288 290 291 288 285 283 283 284 283 283 282 280 280 280 281 280 278 278 278 277 276 276 276 275 275 273 273 273 273 274
271 273 273 273 272 274 276 278 279 282 283 283 284 281 283 286 287 285 282 282 281 281 282 281 279 280 281 281 278 277 277 276 275 275 275 274 275 274 273 272 272 272 273
268 269 269 270 270 271 274 276 278 279 281 283 282 282 281 280 281 282 283 281 281 279 279 281 280 281 282 279 277 278 276 276 276 275 274 274 273 272 272 272 271 272 272
266 267 267 268 270 272 273 275 277 279 280 281 280 281 281 280 279 280 281 281 281 279 277 280 282 281 280 277 277 275 275 276 275 274 273 273 272 271 272 271 271 270 270
265 266 268 270 271 272 273 275 277 278 279 279 279 280 280 279 278 279 280 281 280 279 278 280 281 280 278 277 275 275 275 274 274 273 273 272 271 271 271 270 270 270 269
267 269 271 271 272 273 273 275 276 278 278 277 278 278 279 280 279 279 280 280 279 278 279 281 279 279 276 274 274 274 274 273 273 272 271 271 271 271 270 270 269 269 269
268 269 271 272 273 274 275 276 277 277 276 276 276 277 278 278 278 279 279 279 278 278 279 279 278 276 273 273 274 273 273 272 272 271 270 270 270 270 270 269 269 269 268
269 270 271 272 273 274 275 275 275 275 275 275 276 277 279 278 278 278 279 278 278 277 277 276 274 273 273 273 273 273 272 271 271 270 270 270 270 270 269 269 268 268 268
269 270 271 271 272 272 273 273 273 274 275 275 276 277 277 278 278 278 277 277 276 276 274 272 272 272 272 272 272 272 271 270 270 270 269 270 270 269 269 268 268 268 268
268 269 270 271 271 271 272 272 273 274 274 275 276 276 276 277 277 276 276 276 275 274 272 271 271 271 271 271 271 270 270 270 269 269 269 269 269 269 268 268 268 268 267
268 268 269 270 270 271 271 271 272 273 273 274 275 275 275 275 276 276 275 274 272 270 271 271 271 270 270 270 270 270 269 269 269 269 269 269 269 268 268 268 268 267 267
Wind_Speed
32 31 31 33 37 38 41 42 44 44 44 45 44 44 46 48 49 48 47 44 43 41 39 37 32 28 25 22 22 21 21 20 18 18 18 17 17 20 22 24 26 28 30
25 29 33 37 39 42 44 46 48 48 47 46 46 46 47 47 50 51 49 48 47 45 42 39 36 33 29 25 24 23 22 21 20 19 20 20 20 21 24 27 30 31 31
26 22 26 29 34 43 46 48 51 51 50 50 50 51 50 50 52 53 51 50 49 47 44 43 39 35 31 28 26 25 23 22 20 20 21 20 23 24 25 28 31 34 36
35 36 32 28 31 32 35 42 50 52 52 53 54 54 53 52 52 53 53 53 50 49 47 45 41 37 33 30 28 25 23 21 21 20 21 20 23 24 28 32 35 36 39
41 39 42 38 34 32 33 35 43 50 49 53 56 56 55 55 55 56 56 55 54 52 49 48 43 39 34 32 30 27 24 22 20 19 18 20 22 26 28 32 35 37 39
40 42 40 39 36 33 32 35 39 44 49 52 56 56 57 58 59 56 56 56 56 55 53 51 45 41 38 35 32 28 25 22 20 21 18 19 22 23 25 28 32 37 41
39 38 41 40 36 36 33 31 37 41 44 51 54 56 59 60 60 56 56 57 57 58 55 52 48 44 40 36 32 29 26 24 24 21 19 18 20 20 23 27 30 34 37
43 40 39 39 40 37 35 33 33 36 43 47 52 55 55 60 57 55 58 58 58 58 55 53 50 46 42 37 33 30 26 24 21 18 18 16 17 18 20 24 28 34 37
46 46 44 43 40 36 35 33 30 32 39 44 47 50 52 56 55 55 58 60 59 59 57 54 49 45 40 36 35 31 28 24 21 18 19 17 14 15 17 22 25 32 41
46 46 46 43 38 37 33 32 29 29 30 37 43 47 49 49 53 55 58 61 60 58 57 53 50 45 41 40 37 33 30 25 22 19 17 14 13 15 16 20 25 28 33
50 52 47 45 42 38 36 32 29 28 27 30 35 40 44 45 46 51 55 58 56 57 59 54 49 45 42 40 36 33 27 23 21 19 16 14 14 16 16 19 22 26 30
55 54 55 49 48 40 39 36 31 27 27 26 28 36 40 41 40 44 46 56 54 52 52 53 49 45 42 39 34 31 27 25 22 18 16 14 15 16 17 19 22 25 28
55 59 55 56 50 47 39 38 34 30 29 26 29 35 36 37 38 40 45 47 44 45 50 49 45 43 40 33 28 23 24 22 18 17 16 15 16 17 18 20 22 25 28
58 57 59 55 54 46 45 39 35 36 34 33 30 33 35 35 36 40 43 43 37 43 46 43 39 37 33 33 32 31 23 21 18 17 16 15 16 16 19 20 25 27 34
58 58 57 55 50 46 43 41 38 37 39 38 39 34 32 34 37 39 47 49 46 42 41 38 38 38 36 36 32 28 23 22 17 16 16 16 16 18 19 20 23 30 35
58 56 55 51 49 45 39 43 40 37 36 37 39 38 35 31 29 32 41 50 52 46 41 43 45 44 42 38 35 28 25 20 18 17 16 16 17 19 20 22 25 30 35
50 50 48 47 43 41 36 37 41 37 33 34 34 32 35 33 31 26 32 42 41 40 42 46 50 47 41 36 29 28 22 20 17 15 15 15 17 19 20 24 27 31 36
43 42 43 44 42 40 36 34 38 37 36 35 33 30 32 30 27 27 25 43 39 40 45 45 42 40 37 32 31 27 25 20 18 16 15 16 17 20 21 24 28 32 35
41 42 39 42 42 39 37 33 36 37 33 32 31 28 29 28 25 25 33 51 52 53 45 38 36 36 32 31 29 26 22 20 17 15 15 15 17 19 22 25 30 32 34
40 40 39 38 38 37 34 29 35 35 33 31 31 28 31 29 27 34 42 44 49 51 44 38 40 34 33 30 28 24 20 17 16 15 14 15 16 18 21 26 30 33 34
35 35 31 32 32 31 28 30 32 32 30 29 28 26 32 34 31 36 40 45 49 47 39 37 36 35 31 29 25 20 17 15 14 13 14 14 15 17 20 26 30 32 35
29 31 30 29 28 25 24 27 29 26 24 23 22 23 28 31 33 39 45 45 42 42 38 33 33 29 26 22 19 16 14 13 13 13 13 14 15 17 22 27 31 33 36
25 23 23 21 18 17 20 20 18 18 18 19 21 24 31 34 34 41 44 39 40 34 28 27 25 24 22 18 15 13 12 11 12 12 12 14 15 18 23 28 32 35 37
18 17 15 13 10 8 8 9 10 12 15 21 24 25 27 29 32 33 35 36 31 27 25 23 22 20 17 14 13 11 10 11 12 12 13 15 16 19 24 29 33 35 38
14 13 11 8 6 3 3 6 10 14 19 20 20 21 24 28 28 29 29 24 23 23 21 20 17 14 12 11 10 10 10 10 12 12 12 15 18 20 25 30 35 36 38
13 11 9 7 5 3 1 3 7 11 14 17 19 17 18 23 24 23 20 22 21 20 17 14 13 12 10 8 8 9 10 11 11 11 12 15 18 20 27 31 35 36 38
Wind_Direction
308 291 279 269 263 259 256 252 250 248 244 242 240 236 234 233 232 231 232 231 231 232 234 236 239 243 249 253 256 257 257 257 262 269 281 294 305 314 317 318 319 320 317
298 297 293 284 275 271 267 260 254 250 247 244 242 239 235 233 233 233 233 231 231 230 233 235 238 240 243 245 249 253 254 257 268 278 288 301 311 318 322 323 324 325 325
340 313 295 291 289 282 275 268 261 255 250 246 242 241 238 234 232 233 234 234 234 233 233 234 236 239 242 245 248 249 249 254 266 279 290 305 316 321 323 327 331 329 330
349 347 326 305 297 294 285 273 267 259 254 251 248 244 240 236 234 233 233 233 232 234 233 232 232 235 240 245 246 244 243 255 267 279 292 307 316 323 330 331 326 328 328
350 347 345 327 304 296 292 285 275 265 261 256 252 248 244 240 236 232 232 230 231 232 230 231 230 232 235 240 241 242 241 247 262 273 287 303 313 322 329 329 326 326 324
338 341 342 347 328 298 288 285 279 272 264 258 255 250 247 244 240 236 233 231 230 230 229 228 227 229 232 236 239 237 241 248 258 266 277 300 311 318 322 321 324 327 329
332 334 334 337 342 338 296 281 278 275 270 262 257 254 249 246 241 238 234 232 231 229 227 227 227 228 230 230 233 235 238 245 252 267 287 298 301 308 313 317 323 320 319
332 326 327 328 329 333 334 302 285 278 270 264 260 255 250 248 242 239 237 234 231 230 228 228 227 227 227 229 229 229 234 242 254 266 276 279 287 298 316 318 316 314 311
327 325 324 324 320 321 327 330 306 285 276 265 260 255 249 247 243 236 233 234 230 228 226 225 226 227 226 225 224 224 229 235 243 254 263 276 297 303 305 308 313 313 312
322 319 317 315 315 312 313 322 318 298 282 272 263 256 252 246 243 236 233 233 228 224 224 224 224 225 224 226 225 225 227 230 235 243 254 266 281 290 300 305 307 308 307
320 316 313 312 311 312 311 306 310 305 289 274 267 262 255 248 242 238 232 235 230 224 223 220 218 220 221 225 226 226 227 228 232 241 246 261 276 290 300 300 301 300 303
317 315 312 310 306 304 303 297 294 294 288 277 269 260 253 247 241 231 225 235 230 228 226 225 221 220 220 221 224 224 223 229 231 234 242 256 273 286 291 296 296 300 302
313 311 309 306 305 301 293 292 286 282 276 272 261 252 249 246 238 227 211 222 231 225 225 226 222 217 218 214 207 207 212 226 231 235 246 260 275 287 295 298 300 303 304
308 306 304 302 300 298 294 286 283 275 266 260 258 255 249 244 238 224 209 212 220 221 219 218 215 212 207 210 204 213 221 224 229 240 254 267 277 286 294 301 308 315 311
304 302 299 299 297 297 290 286 279 277 272 265 264 261 257 252 243 229 216 204 211 221 214 206 200 198 203 208 214 220 220 222 226 242 259 271 281 290 298 308 314 316 315
299 297 296 296 294 291 287 284 282 278 278 272 263 260 260 258 255 247 218 207 215 217 211 207 205 207 209 210 211 213 216 221 231 242 255 268 279 291 304 312 317 316 317
294 292 291 292 292 289 286 279 277 282 276 271 266 254 259 257 248 236 218 200 209 210 212 207 206 205 206 211 205 211 214 223 232 246 259 270 282 292 304 312 320 321 322
293 290 289 289 288 288 285 277 271 277 279 277 257 253 236 240 238 237 202 194 197 203 209 211 210 210 213 204 204 207 212 222 233 245 257 268 282 295 305 316 322 325 324
294 290 287 285 287 285 282 271 266 274 275 273 261 250 231 223 224 213 195 190 193 198 203 210 213 213 208 202 205 207 211 219 230 241 252 268 282 295 306 317 323 325 325
297 295 295 293 291 287 281 268 257 265 267 263 253 247 225 209 203 202 195 195 197 202 200 208 210 207 199 203 205 209 213 219 229 239 255 270 281 297 310 320 325 326 328
300 301 301 297 291 286 272 262 261 262 261 255 250 240 226 220 207 197 193 197 200 202 202 208 204 198 197 201 205 209 214 222 232 246 257 272 288 304 314 321 325 327 333
307 308 306 300 296 284 270 263 262 261 257 247 237 226 209 206 196 192 196 201 201 209 209 201 194 189 196 203 208 210 217 225 237 250 262 280 297 307 318 323 328 330 329
312 311 309 307 299 280 264 260 256 248 236 227 219 204 197 201 199 198 200 198 202 200 192 185 181 190 196 202 209 220 227 236 248 262 275 285 301 312 321 326 331 328 326
326 322 319 319 313 292 270 252 237 222 209 193 190 191 198 199 198 197 194 189 184 184 174 176 186 191 197 206 219 230 242 252 265 276 284 299 310 314 322 329 327 324 324
344 343 341 340 334 320 262 211 192 184 183 185 185 188 189 185 182 175 173 180 184 173 173 183 187 194 207 219 231 246 256 263 269 278 292 303 308 317 329 324 322 325 324
10 11 13 12 11 16 41 172 169 171 176 178 178 174 171 167 169 174 178 173 165 171 176 184 193 203 214 230 250 260 261 264 273 287 291 299 314 317 319 318 321 323 324